• In Uzbekistan
  • List of Countries
  • For 7 days
  • Water Temperature
  • Satellite Maps
  • Weather Map
  • Weather Widgets
  • user-avatar
    Login

    Hourly Weather Bad Säckingen

    Today, 20 April, Friday

    Time Temperature Precipitation Wind Pressure Humidity
    00:00 +15°C° 0 mm 1 mps 739 mmHg 79%
    01:00 +15°C° 0 mm 1 mps 738 mmHg 75%
    02:00 +15°C° 0 mm 1 mps 738 mmHg 76%
    03:00 +14°C° 0 mm 1 mps 738 mmHg 77%
    04:00 +14°C° 0 mm 1 mps 738 mmHg 77%
    05:00 +14°C° 0 mm 1 mps 738 mmHg 76%
    06:00 +15°C° 0 mm 1 mps 738 mmHg 75%
    07:00 +16°C° 0 mm 1 mps 738 mmHg 68%
    08:00 +20°C° 0 mm 1 mps 738 mmHg 62%
    09:00 +20°C° 0 mm 0 mps 738 mmHg 56%
    10:00 +23°C° 0 mm 0 mps 738 mmHg 50%
    11:00 +24°C° 0 mm 0 mps 738 mmHg 46%
    12:00 +27°C° 0 mm 1 mps 738 mmHg 43%
    13:00 +28°C° 0 mm 1 mps 738 mmHg 40%
    14:00 +28°C° 0 mm 1 mps 738 mmHg 40%
    15:00 +28°C° 0 mm 1 mps 737 mmHg 40%
    16:00 +28°C° 0 mm 1 mps 737 mmHg 40%
    17:00 +26°C° 0 mm 1 mps 737 mmHg 48%
    18:00 +23°C° 0 mm 1 mps 737 mmHg 56%
    19:00 +21°C° 0 mm 1 mps 736 mmHg 64%
    20:00 +20°C° 0 mm 1 mps 737 mmHg 66%
    21:00 +19°C° 0 mm 1 mps 737 mmHg 68%
    22:00 +16°C° 0 mm 1 mps 737 mmHg 69%
    23:00 +16°C° 0 mm 1 mps 737 mmHg 70%

    Tomorrow, 21 April, Saturday

    Time Temperature Precipitation Wind Pressure Humidity
    00:00 +15°C° 0 mm 1 mps 737 mmHg 70%
    01:00 +15°C° 0 mm 1 mps 737 mmHg 70%
    02:00 +14°C° 0 mm 1 mps 737 mmHg 71%
    03:00 +14°C° 0 mm 1 mps 736 mmHg 71%
    04:00 +14°C° 0 mm 1 mps 736 mmHg 71%
    05:00 +14°C° 0 mm 1 mps 736 mmHg 70%
    06:00 +15°C° 0 mm 1 mps 736 mmHg 70%
    07:00 +16°C° 0 mm 1 mps 736 mmHg 69%
    08:00 +17°C° 0 mm 0 mps 737 mmHg 62%
    09:00 +20°C° 0 mm 0 mps 737 mmHg 56%
    10:00 +23°C° 0 mm 0 mps 737 mmHg 49%
    11:00 +24°C° 0 mm 0 mps 736 mmHg 47%
    12:00 +27°C° 0 mm 1 mps 736 mmHg 44%
    13:00 +28°C° 0 mm 1 mps 736 mmHg 42%
    14:00 +28°C° 0 mm 1 mps 736 mmHg 42%
    15:00 +27°C° 0 mm 1 mps 735 mmHg 43%
    16:00 +27°C° 0 mm 1 mps 735 mmHg 43%
    17:00 +25°C° 0 mm 1 mps 735 mmHg 51%
    18:00 +23°C° 0 mm 1 mps 734 mmHg 59%
    19:00 +21°C° 0 mm 1 mps 734 mmHg 67%
    20:00 +20°C° 0 mm 1 mps 734 mmHg 70%
    21:00 +19°C° 0 mm 1 mps 735 mmHg 73%
    22:00 +18°C° 0 mm 1 mps 735 mmHg 76%
    23:00 +16°C° 0 mm 1 mps 735 mmHg 78%

    Day after tomorrow, 22 April, Sunday

    Time Temperature Precipitation Wind Pressure Humidity
    00:00 +16°C° 0 mm 1 mps 735 mmHg 80%
    01:00 +15°C° 0 mm 1 mps 735 mmHg 81%
    02:00 +15°C° 0 mm 1 mps 734 mmHg 83%
    03:00 +15°C° 0 mm 1 mps 734 mmHg 84%
    04:00 +14°C° 0 mm 1 mps 734 mmHg 85%
    05:00 +15°C° 0 mm 1 mps 734 mmHg 83%
    06:00 +16°C° 0 mm 1 mps 734 mmHg 81%
    07:00 +16°C° 0 mm 1 mps 734 mmHg 79%
    08:00 +20°C° 0 mm 1 mps 734 mmHg 71%
    09:00 +22°C° 0 mm 1 mps 734 mmHg 62%
    10:00 +25°C° 0 mm 1 mps 734 mmHg 54%
    11:00 +26°C° 0 mm 2 mps 734 mmHg 50%
    12:00 +26°C° 0 mm 2 mps 734 mmHg 45%
    13:00 +27°C° 0 mm 2 mps 733 mmHg 41%
    14:00 +27°C° 0 mm 2 mps 733 mmHg 42%
    15:00 +27°C° 0 mm 3 mps 733 mmHg 42%
    16:00 +27°C° 0 mm 3 mps 733 mmHg 43%
    17:00 +25°C° 0 mm 2 mps 733 mmHg 50%
    18:00 +23°C° 0 mm 2 mps 733 mmHg 58%
    19:00 +21°C° 0 mm 1 mps 733 mmHg 66%
    20:00 +20°C° 0 mm 1 mps 733 mmHg 67%
    21:00 +19°C° 0 mm 1 mps 734 mmHg 69%
    22:00 +16°C° 0 mm 1 mps 734 mmHg 71%
    23:00 +16°C° 0 mm 1 mps 734 mmHg 71%

    23 April, Monday

    Time Temperature Precipitation Wind Pressure Humidity
    00:00 +15°C° 0 mm 1 mps 734 mmHg 72%
    01:00 +15°C° 0 mm 1 mps 734 mmHg 72%
    02:00 +15°C° 0 mm 1 mps 734 mmHg 72%
    03:00 +15°C° 0 mm 1 mps 734 mmHg 72%
    04:00 +14°C° 0 mm 1 mps 734 mmHg 72%
    05:00 +15°C° 0 mm 1 mps 734 mmHg 72%
    06:00 +15°C° 0 mm 1 mps 734 mmHg 72%
    07:00 +16°C° 0 mm 1 mps 734 mmHg 73%
    08:00 +17°C° 0.1 mm 2 mps 734 mmHg 71%
    09:00 +18°C° 0.1 mm 2 mps 734 mmHg 69%
    10:00 +20°C° 0.1 mm 2 mps 734 mmHg 67%
    11:00 +19°C° 1 mm 3 mps 734 mmHg 72%
    12:00 +19°C° 1 mm 3 mps 734 mmHg 77%
    13:00 +19°C° 1 mm 4 mps 734 mmHg 82%
    14:00 +18°C° 1.4 mm 3 mps 734 mmHg 84%
    15:00 +18°C° 1.4 mm 3 mps 734 mmHg 86%
    16:00 +17°C° 1.4 mm 3 mps 734 mmHg 88%
    17:00 +17°C° 0.4 mm 2 mps 734 mmHg 89%
    18:00 +16°C° 0.4 mm 2 mps 734 mmHg 90%
    19:00 +16°C° 0.4 mm 2 mps 735 mmHg 91%
    20:00 +15°C° 0.1 mm 2 mps 735 mmHg 92%
    21:00 +14°C° 0.1 mm 2 mps 735 mmHg 93%
    22:00 +14°C° 0.1 mm 1 mps 736 mmHg 94%
    23:00 +13°C° 0 mm 1 mps 736 mmHg 95%

    24 April, Tuesday

    Time Temperature Precipitation Wind Pressure Humidity
    00:00 +13°C° 0 mm 1 mps 736 mmHg 95%
    01:00 +12°C° 0 mm 1 mps 736 mmHg 95%
    02:00 +12°C° 0 mm 1 mps 736 mmHg 95%
    03:00 +12°C° 0 mm 1 mps 736 mmHg 95%
    04:00 +12°C° 0 mm 1 mps 736 mmHg 95%
    05:00 +12°C° 0 mm 1 mps 736 mmHg 93%
    06:00 +13°C° 0 mm 1 mps 736 mmHg 92%
    07:00 +13°C° 0 mm 1 mps 736 mmHg 90%
    08:00 +16°C° 0 mm 1 mps 736 mmHg 81%
    09:00 +19°C° 0 mm 1 mps 736 mmHg 72%
    10:00 +21°C° 0 mm 1 mps 736 mmHg 63%
    11:00 +22°C° 0 mm 1 mps 736 mmHg 56%
    12:00 +24°C° 0 mm 2 mps 735 mmHg 50%
    13:00 +25°C° 0 mm 2 mps 735 mmHg 43%
    14:00 +25°C° 0 mm 2 mps 734 mmHg 43%
    15:00 +25°C° 0 mm 2 mps 734 mmHg 43%
    16:00 +25°C° 0 mm 2 mps 734 mmHg 43%
    17:00 +23°C° 0 mm 1 mps 733 mmHg 52%
    18:00 +22°C° 0 mm 1 mps 733 mmHg 60%
    19:00 +20°C° 0 mm 1 mps 733 mmHg 68%
    20:00 +19°C° 0 mm 1 mps 733 mmHg 71%
    21:00 +16°C° 0 mm 1 mps 733 mmHg 75%
    22:00 +15°C° 0 mm 1 mps 733 mmHg 78%
    23:00 +14°C° 0 mm 1 mps 733 mmHg 79%

    25 April, Wednesday

    Time Temperature Precipitation Wind Pressure Humidity
    00:00 +14°C° 0 mm 1 mps 733 mmHg 79%
    01:00 +14°C° 0 mm 1 mps 733 mmHg 80%
    02:00 +13°C° 0 mm 1 mps 732 mmHg 79%
    03:00 +13°C° 0 mm 1 mps 732 mmHg 78%
    04:00 +13°C° 0 mm 1 mps 732 mmHg 77%
    05:00 +14°C° 0 mm 1 mps 732 mmHg 74%
    06:00 +15°C° 0 mm 1 mps 732 mmHg 71%
    07:00 +16°C° 0 mm 1 mps 732 mmHg 68%
    08:00 +18°C° 0 mm 2 mps 732 mmHg 62%
    09:00 +20°C° 0 mm 3 mps 732 mmHg 56%
    10:00 +23°C° 0 mm 4 mps 732 mmHg 49%
    11:00 +25°C° 0 mm 4 mps 732 mmHg 49%
    12:00 +26°C° 0 mm 5 mps 732 mmHg 48%
    13:00 +27°C° 0 mm 6 mps 732 mmHg 48%
    14:00 +26°C° 0.4 mm 6 mps 732 mmHg 53%
    15:00 +24°C° 0.4 mm 6 mps 732 mmHg 58%
    16:00 +23°C° 0.4 mm 6 mps 731 mmHg 63%
    17:00 +22°C° 0.5 mm 5 mps 732 mmHg 70%
    18:00 +20°C° 0.5 mm 4 mps 732 mmHg 78%
    19:00 +18°C° 0.5 mm 3 mps 732 mmHg 85%
    20:00 +17°C° 0.2 mm 3 mps 733 mmHg 88%
    21:00 +16°C° 0.2 mm 2 mps 734 mmHg 90%
    22:00 +15°C° 0.2 mm 1 mps 734 mmHg 93%
    23:00 +14°C° 0 mm 1 mps 735 mmHg 93%
    Show more